GW2011 Weather Reports


Display with metric or nautical units.
time (UTC)temp
F
wind
direction
speed
MPH
gust
MPH
rain 1hr
in
rain 24hr
in
rain mn
in
humidity
%
barometer
mb
20260509184015 57 0 2.0 8.0 0.00 0.01 0.01 41 1007.2
20260509183514 57 304 2.0 8.0 0.00 0.01 0.01 39 1007.1
20260509183033 57 42 2.0 6.0 0.00 0.01 0.01 39 1007.0
20260509182515 57 351 2.0 11.0 0.00 0.01 0.01 38 1007.2
20260509182015 57 298 3.0 11.0 0.00 0.01 0.01 38 1007.1
20260509181533 57 342 4.0 11.0 0.00 0.01 0.01 40 1006.9
20260509181015 56 5 2.0 11.0 0.00 0.01 0.01 39 1006.8
20260509180515 56 296 3.0 9.0 0.00 0.01 0.01 44 1006.9
20260509180053 56 331 2.0 9.0 0.00 0.01 0.01 41 1007.0
20260509175515 56 28 3.0 9.0 0.00 0.01 0.01 39 1006.9
20260509175014 56 214 2.0 12.0 0.00 0.01 0.01 38 1006.9
20260509174532 56 300 2.0 12.0 0.00 0.01 0.01 41 1006.9
20260509174016 56 278 3.0 9.0 0.00 0.01 0.01 39 1006.8
20260509173513 56 159 3.0 9.0 0.00 0.01 0.01 40 1006.9
20260509173040 56 309 2.0 11.0 0.00 0.01 0.01 44 1007.0
20260509172520 55 18 4.0 11.0 0.00 0.01 0.01 42 1007.1
20260509172015 55 254 3.0 8.0 0.00 0.01 0.01 42 1007.0
20260509171543 55 299 2.0 8.0 0.00 0.01 0.01 46 1006.9
20260509171015 55 296 3.0 10.0 0.00 0.01 0.01 44 1006.6
20260509170515 55 331 4.0 10.0 0.00 0.01 0.01 43 1006.7
20260509170046 56 320 2.0 8.0 0.00 0.01 0.01 43 1006.8
20260509165518 56 15 2.0 7.0 0.00 0.01 0.01 44 1006.7
20260509165013 55 298 2.0 8.0 0.00 0.01 0.01 44 1006.5
20260509164531 55 333 3.0 8.0 0.00 0.01 0.01 44 1006.5
20260509164013 55 87 2.0 9.0 0.00 0.01 0.01 46 1006.5
20260509163516 55 31 3.0 14.0 0.00 0.01 0.01 45 1006.4
20260509163031 54 336 2.0 14.0 0.00 0.01 0.01 46 1006.4
20260509162512 55 232 2.0 5.0 0.00 0.01 0.01 46 1006.3
20260509162017 54 293 2.0 10.0 0.00 0.01 0.01 45 1006.3
20260509161541 54 323 5.0 10.0 0.00 0.01 0.01 43 1006.2
20260509161015 54 35 1.0 6.0 0.00 0.01 0.01 47 1006.1
20260509160514 54 323 2.0 8.0 0.00 0.01 0.01 47 1006.1
20260509160035 54 333 2.0 11.0 0.00 0.01 0.01 44 1005.9
20260509155513 54 57 2.0 11.0 0.00 0.01 0.01 48 1005.9
20260509155013 54 244 2.0 10.0 0.00 0.01 0.01 49 1005.9
20260509154532 54 309 2.0 9.0 0.00 0.01 0.01 48 1005.9
20260509154013 54 87 2.0 6.0 0.00 0.01 0.01 48 1005.8
20260509153515 53 33 1.0 6.0 0.00 0.01 0.01 49 1005.9
20260509153033 53 360 2.0 7.0 0.00 0.01 0.01 49 1005.6
20260509152513 53 59 2.0 7.0 0.00 0.01 0.01 48 1005.5
20260509152017 53 327 3.0 7.0 0.00 0.01 0.01 50 1005.3
20260509151532 53 344 2.0 9.0 0.00 0.01 0.01 51 1005.4
20260509151016 52 39 2.0 9.0 0.00 0.01 0.01 50 1005.4
20260509150517 53 148 2.0 5.0 0.00 0.01 0.01 51 1005.3
20260509150032 52 330 1.0 6.0 0.00 0.01 0.01 52 1005.2
20260509145515 52 258 2.0 8.0 0.00 0.01 0.01 53 1005.3
20260509145016 52 316 3.0 8.0 0.00 0.01 0.01 51 1005.0
20260509144533 52 289 3.0 9.0 0.00 0.01 0.01 52 1005.0
20260509144013 52 352 2.0 9.0 0.00 0.01 0.01 55 1004.9
20260509143516 52 317 1.0 5.0 0.00 0.01 0.01 58 1004.9
20260509143035 51 323 1.0 5.0 0.00 0.01 0.01 59 1004.9
20260509142513 51 46 2.0 6.0 0.00 0.01 0.01 58 1004.8
20260509142018 51 294 1.0 9.0 0.00 0.01 0.01 60 1004.8
20260509141542 51 62 3.0 10.0 0.00 0.01 0.01 59 1004.6
20260509141016 51 342 2.0 10.0 0.00 0.01 0.01 61 1004.7
20260509140515 50 339 2.0 7.0 0.00 0.01 0.01 64 1004.5
20260509140031 50 32 2.0 7.0 0.00 0.01 0.01 64 1004.4
20260509135515 50 300 2.0 7.0 0.00 0.01 0.01 66 1004.5
20260509135012 49 53 1.0 6.0 0.00 0.01 0.01 66 1004.3
20260509134533 49 360 3.0 6.0 0.00 0.01 0.01 68 1004.2
20260509134013 49 16 2.0 5.0 0.00 0.01 0.01 69 1004.0
20260509133516 49 15 3.0 5.0 0.00 0.01 0.01 70 1004.2
20260509133037 48 329 1.0 7.0 0.00 0.01 0.01 72 1003.9
20260509132516 48 31 1.0 7.0 0.00 0.01 0.01 73 1003.9
20260509132013 48 342 2.0 6.0 0.00 0.01 0.01 73 1003.9
20260509131532 47 316 1.0 4.0 0.00 0.01 0.01 74 1004.0
20260509131015 47 301 1.0 4.0 0.00 0.01 0.01 76 1003.9
20260509130514 47 338 1.0 5.0 0.00 0.01 0.01 77 1003.8
20260509130034 47 44 2.0 5.0 0.00 0.01 0.01 76 1003.5
20260509125519 47 340 1.0 5.0 0.00 0.01 0.01 78 1003.6
20260509125015 46 25 1.0 5.0 0.00 0.01 0.01 80 1003.4
20260509124531 46 347 1.0 4.0 0.00 0.01 0.01 81 1003.2
20260509124016 46 297 1.0 4.0 0.00 0.01 0.01 82 1003.1
20260509123515 46 324 1.0 4.0 0.00 0.01 0.01 83 1003.1
20260509123033 46 312 0.0 3.0 0.00 0.01 0.01 84 1003.0
20260509122515 46 306 1.0 3.0 0.00 0.01 0.01 84 1003.0
20260509122016 46 0 1.0 3.0 0.00 0.01 0.01 84 1002.7
20260509121533 46 308 0.0 3.0 0.00 0.01 0.01 84 1002.6
20260509121013 45 0 0.0 3.0 0.00 0.01 0.01 84 1002.6
20260509120512 45 296 0.0 3.0 0.00 0.01 0.01 84 1002.6
20260509120032 45 0 0.0 3.0 0.00 0.01 0.01 84 1002.5
20260509115514 46 352 0.0 4.0 0.00 0.01 0.01 84 1002.4
20260509115042 46 336 1.0 4.0 0.00 0.01 0.01 84 1002.3
20260509114536 46 10 0.0 4.0 0.00 0.01 0.01 84 1002.3
20260509114017 46 49 1.0 4.0 0.00 0.01 0.01 83 1002.2
20260509113514 46 30 1.0 5.0 0.00 0.01 0.01 83 1002.1
20260509113035 46 330 2.0 5.0 0.00 0.01 0.01 83 1002.1
20260509112515 46 343 2.0 4.0 0.00 0.01 0.01 83 1001.9
20260509112015 46 320 1.0 4.0 0.00 0.01 0.01 83 1001.9
20260509111533 46 0 0.0 4.0 0.00 0.01 0.01 83 1001.8
20260509111014 47 334 1.0 4.0 0.00 0.01 0.01 83 1001.6
20260509110516 47 0 1.0 3.0 0.00 0.01 0.01 83 1001.5
20260509110032 47 336 0.0 3.0 0.00 0.01 0.01 83 1001.5
20260509105514 48 311 1.0 4.0 0.00 0.01 0.01 82 1001.4
20260509105016 48 290 1.0 6.0 0.00 0.01 0.01 82 1001.3
20260509104546 48 288 2.0 7.0 0.00 0.01 0.01 82 1001.0
20260509104013 49 288 2.0 7.0 0.00 0.01 0.01 82 1001.0
20260509103516 49 319 2.0 7.0 0.00 0.01 0.01 82 1001.0
20260509103035 49 325 2.0 6.0 0.00 0.01 0.01 82 1000.7
20260509102513 49 318 2.0 4.0 0.00 0.01 0.01 83 1000.7
20260509102015 49 332 1.0 5.0 0.00 0.01 0.01 84 1000.6
20260509101537 49 291 2.0 5.0 0.00 0.01 0.01 84 1000.4
20260509101015 49 0 1.0 4.0 0.00 0.01 0.01 84 1000.3
20260509100516 49 280 2.0 4.0 0.00 0.01 0.01 83 1000.3
20260509100033 49 268 1.0 4.0 0.00 0.01 0.01 83 1000.2
20260509095516 49 267 1.0 5.0 0.00 0.01 0.01 83 1000.1
20260509095016 49 288 2.0 7.0 0.00 0.01 0.01 83 1000.0
20260509094535 49 298 2.0 7.0 0.00 0.01 0.01 83 1000.1
20260509094015 49 278 3.0 6.0 0.01 0.01 0.01 84 1000.1
20260509093515 49 269 2.0 6.0 0.01 0.01 0.01 84 999.9
20260509093032 49 283 2.0 4.0 0.01 0.01 0.01 84 1000.0
20260509092512 49 279 2.0 3.0 0.01 0.01 0.01 84 999.7
20260509092015 49 267 2.0 3.0 0.01 0.01 0.01 84 999.6
20260509091536 49 276 1.0 4.0 0.01 0.01 0.01 84 999.8
20260509091014 49 276 2.0 4.0 0.01 0.01 0.01 84 999.6
20260509090514 49 268 1.0 3.0 0.01 0.01 0.01 84 999.6
20260509090047 49 268 1.0 3.0 0.01 0.01 0.01 84 999.6
20260509085516 49 0 0.0 2.0 0.01 0.01 0.01 84 999.8
20260509085016 49 296 0.0 3.0 0.01 0.01 0.01 84 999.8
20260509084533 49 223 1.0 4.0 0.01 0.01 0.01 83 999.6
20260509084015 49 223 1.0 4.0 0.00 0.00 0.00 82 999.4
20260509083515 49 126 1.0 4.0 0.00 0.00 0.00 82 999.9
20260509083032 49 0 1.0 3.0 0.00 0.00 0.00 81 1000.1
20260509082515 50 0 0.0 2.0 0.00 0.00 0.00 80 1000.3
20260509082015 50 42 0.0 2.0 0.00 0.00 0.00 79 1000.3
20260509081547 50 0 0.0 2.0 0.00 0.00 0.00 78 1000.0
20260509081014 50 0 0.0 5.0 0.00 0.00 0.00 78 1000.1
20260509080515 50 37 2.0 5.0 0.00 0.00 0.00 77 999.9
20260509080034 50 0 0.0 5.0 0.00 0.00 0.00 76 1000.1
20260509075515 51 36 1.0 6.0 0.00 0.00 0.00 75 1000.0
20260509075015 51 40 2.0 6.0 0.00 0.00 0.00 75 1000.1
20260509074534 51 0 2.0 6.0 0.00 0.00 0.00 74 1000.2
20260509074013 51 31 2.0 8.0 0.00 0.00 0.00 74 1000.3
20260509073516 51 19 1.0 8.0 0.00 0.00 0.00 73 1000.2
20260509073044 52 11 1.0 4.0 0.00 0.00 0.00 72 999.9
20260509072515 52 30 2.0 4.0 0.00 0.00 0.00 72 999.8
20260509072013 52 18 1.0 4.0 0.00 0.00 0.00 70 999.7
20260509071542 52 0 1.0 6.0 0.00 0.00 0.00 68 999.9
20260509071015 52 23 2.0 6.0 0.00 0.00 0.00 67 999.9
20260509070517 52 0 0.0 6.0 0.00 0.00 0.00 65 1000.0
20260509070041 52 328 1.0 6.0 0.00 0.00 0.00 62 999.7
20260509065519 52 21 1.0 4.0 0.00 0.00 0.00 60 999.6
20260509065016 51 18 1.0 4.0 0.00 0.00 0.00 60 999.6
20260509064532 50 319 0.0 2.0 0.00 0.00 0.00 60 999.7
20260509064019 50 0 0.0 2.0 0.00 0.00 0.00 60 999.7
20260509063513 49 310 0.0 2.0 0.00 0.00 0.00 62 999.7
20260509063054 49 310 0.0 3.0 0.00 0.00 0.00 63 1000.0
20260509062512 48 310 0.0 4.0 0.00 0.00 0.00 63 1000.0
20260509062016 47 303 0.0 4.0 0.00 0.00 0.00 69 999.9
20260509061552 48 259 1.0 3.0 0.00 0.00 0.00 74 999.6
20260509061014 48 259 1.0 3.0 0.00 0.00 0.00 74 999.5
20260509060514 48 0 0.0 1.0 0.00 0.00 0.00 64 999.5
20260509060050 47 0 0.0 1.0 0.00 0.00 0.00 66 999.4
20260509055512 46 259 0.0 2.0 0.00 0.00 0.00 70 999.3
20260509055016 46 0 0.0 2.0 0.00 0.00 0.00 78 999.2
20260509054533 45 259 1.0 2.0 0.00 0.00 0.00 76 999.0
20260509054015 45 259 0.0 3.0 0.00 0.00 0.00 77 999.2
20260509053515 45 259 1.0 3.0 0.00 0.00 0.00 77 999.2
20260509053034 45 259 2.0 3.0 0.00 0.00 0.00 76 999.2
20260509052515 45 0 0.0 2.0 0.00 0.00 0.00 73 999.2
20260509052015 45 275 0.0 2.0 0.00 0.00 0.00 75 999.1
20260509051535 45 275 1.0 3.0 0.00 0.00 0.00 76 998.9
20260509051015 45 275 0.0 3.0 0.00 0.00 0.00 75 999.1
20260509050515 45 284 0.0 2.0 0.00 0.00 0.00 71 999.1
20260509050035 45 284 1.0 2.0 0.00 0.00 0.00 75 998.8
20260509045511 45 284 0.0 2.0 0.00 0.00 0.00 75 998.9
20260509045016 45 0 0.0 2.0 0.00 0.00 0.00 75 999.3
20260509044534 45 284 0.0 3.0 0.00 0.00 0.00 75 999.4
20260509044015 46 284 1.0 3.0 0.00 0.00 0.00 75 999.3
20260509043514 46 284 0.0 2.0 0.00 0.00 0.00 73 999.3
20260509043031 46 0 0.0 1.0 0.00 0.00 0.00 66 999.7
20260509042519 46 0 0.0 1.0 0.00 0.00 0.00 64 999.7
20260509042017 46 0 0.0 1.0 0.00 0.00 0.00 68 999.7
20260509041535 46 0 0.0 2.0 0.00 0.00 0.00 71 999.6
20260509041014 46 0 0.0 3.0 0.00 0.00 0.00 70 999.7
20260509040515 47 284 2.0 3.0 0.00 0.00 0.00 70 999.6
20260509040035 47 0 0.0 2.0 0.00 0.00 0.00 62 999.9
20260509035516 47 0 0.0 3.0 0.00 0.00 0.00 69 1000.1
20260509035013 48 291 1.0 3.0 0.00 0.00 0.00 70 1000.1
20260509034536 48 291 0.0 1.0 0.00 0.00 0.00 63 1000.1
20260509034011 49 0 0.0 0.0 0.00 0.00 0.00 57 1000.2
20260509033517 49 0 0.0 2.0 0.00 0.00 0.00 58 1000.3
20260509033034 50 0 0.0 2.0 0.00 0.00 0.00 66 1000.2
20260509032512 50 328 0.0 2.0 0.00 0.00 0.00 57 1000.4
20260509032014 51 0 0.0 1.0 0.00 0.00 0.00 59 1000.5
20260509031535 51 0 0.0 1.0 0.00 0.00 0.00 59 1000.5
20260509031012 51 0 0.0 0.0 0.00 0.00 0.00 54 1000.6
20260509030519 52 0 0.0 1.0 0.00 0.00 0.00 56 1000.5
20260509030038 52 0 0.0 1.0 0.00 0.00 0.00 46 1000.3
20260509025514 52 328 0.0 2.0 0.00 0.00 0.00 52 1000.3
20260509025017 53 328 1.0 2.0 0.00 0.00 0.00 57 1000.4
20260509024530 54 328 0.0 2.0 0.00 0.00 0.00 48 1000.3
20260509024014 54 0 0.0 0.0 0.00 0.00 0.00 49 1000.3
20260509023514 55 0 0.0 2.0 0.00 0.00 0.00 42 1000.4
20260509023033 55 0 0.0 2.0 0.00 0.00 0.00 43 1000.3
20260509022512 55 328 1.0 2.0 0.00 0.00 0.00 43 1000.3
20260509022014 56 328 0.0 2.0 0.00 0.00 0.00 44 1000.3
20260509021532 57 0 0.0 2.0 0.00 0.00 0.00 41 1000.1
20260509021014 57 0 0.0 1.0 0.00 0.00 0.00 40 1000.2
20260509020511 58 0 0.0 1.0 0.00 0.00 0.00 39 1000.2
20260509020047 58 0 0.0 1.0 0.00 0.00 0.00 40 1000.3
20260509015515 59 0 0.0 2.0 0.00 0.00 0.00 37 1000.4
20260509015013 59 0 0.0 2.0 0.00 0.00 0.00 37 1000.3
20260509014543 60 0 0.0 1.0 0.00 0.00 0.00 37 1000.2
20260509014012 60 0 0.0 2.0 0.00 0.00 0.00 37 1000.2
20260509013513 60 0 0.0 3.0 0.00 0.00 0.00 36 1000.2
20260509013037 61 328 1.0 3.0 0.00 0.00 0.00 36 1000.2
20260509012513 61 330 0.0 2.0 0.00 0.00 0.00 35 1000.2
20260509012017 62 0 0.0 2.0 0.00 0.00 0.00 35 1000.2
20260509011531 62 339 0.0 5.0 0.00 0.00 0.00 34 1000.0
20260509011011 62 309 2.0 5.0 0.00 0.00 0.00 33 1000.0
20260509010516 63 292 1.0 8.0 0.00 0.00 0.00 33 999.8
20260509010032 63 312 3.0 8.0 0.00 0.00 0.00 32 999.8
20260509005514 63 302 2.0 7.0 0.00 0.00 0.00 32 999.8
20260509005021 63 250 2.0 8.0 0.00 0.00 0.00 32 999.7
20260509004531 64 343 2.0 8.0 0.00 0.00 0.00 30 999.7
20260509004013 64 298 2.0 9.0 0.00 0.00 0.00 31 999.6
20260509003515 64 321 3.0 12.0 0.00 0.00 0.00 30 999.7
20260509003041 64 308 4.0 12.0 0.00 0.00 0.00 30 999.6
20260509002513 65 309 2.0 11.0 0.00 0.00 0.00 30 999.4
20260509002013 65 315 4.0 11.0 0.00 0.00 0.00 29 999.4
20260509001531 65 282 3.0 10.0 0.00 0.00 0.00 29 999.6
20260509001013 66 296 4.0 10.0 0.00 0.00 0.00 29 999.3
20260509000514 66 319 2.0 8.0 0.00 0.00 0.00 30 999.2
20260509000031 66 315 4.0 12.0 0.00 0.00 0.00 29 999.3
20260508235517 67 323 3.0 12.0 0.00 0.00 0.00 29 999.3
20260508235015 67 318 6.0 12.0 0.00 0.00 0.00 28 999.2
20260508234532 67 318 4.0 12.0 0.00 0.00 0.00 28 999.2
20260508234014 67 277 3.0 10.0 0.00 0.00 0.00 28 999.1
20260508233517 68 302 4.0 10.0 0.00 0.00 0.00 28 999.3
20260508233032 68 336 3.0 10.0 0.00 0.00 0.00 28 999.2
20260508232520 68 315 4.0 11.0 0.00 0.00 0.00 28 999.1
20260508232019 68 314 4.0 11.0 0.00 0.00 0.00 27 999.1
20260508231532 68 336 3.0 10.0 0.00 0.00 0.00 26 999.0
20260508231015 68 311 3.0 15.0 0.00 0.00 0.00 26 999.1
20260508230514 68 292 5.0 15.0 0.00 0.00 0.00 25 999.1
20260508230031 68 296 5.0 13.0 0.00 0.00 0.00 26 999.1
20260508225512 69 298 5.0 11.0 0.00 0.00 0.00 25 998.8
20260508225013 68 323 4.0 12.0 0.00 0.00 0.00 26 998.9
20260508224535 69 302 5.0 12.0 0.00 0.00 0.00 27 998.8
20260508224016 69 317 6.0 11.0 0.00 0.00 0.00 24 998.9
20260508223517 69 275 5.0 10.0 0.00 0.00 0.00 27 998.9
20260508223039 69 321 3.0 10.0 0.00 0.00 0.00 25 998.9
20260508222514 69 284 4.0 12.0 0.00 0.00 0.00 24 998.9
20260508222016 69 291 5.0 12.0 0.00 0.00 0.00 26 998.6
20260508221532 69 281 6.0 13.0 0.00 0.00 0.00 26 998.9
20260508221021 69 286 6.0 13.0 0.00 0.00 0.00 25 998.7
20260508220513 69 294 4.0 11.0 0.00 0.00 0.00 25 998.8
20260508220034 69 294 3.0 10.0 0.00 0.00 0.00 26 998.7
20260508215516 69 294 4.0 11.0 0.00 0.00 0.00 27 998.7
20260508215015 69 250 6.0 15.0 0.00 0.00 0.00 28 998.7
20260508214534 69 285 6.0 15.0 0.00 0.00 0.00 27 998.8
20260508214016 70 305 5.0 12.0 0.00 0.00 0.00 26 998.9
20260508213513 69 296 5.0 12.0 0.00 0.00 0.00 25 999.0
20260508213032 68 280 5.0 11.0 0.00 0.00 0.00 30 998.7
20260508212513 68 273 4.0 14.0 0.00 0.00 0.00 28 998.7
20260508212016 69 297 5.0 14.0 0.00 0.00 0.00 28 998.9
20260508211533 69 320 5.0 10.0 0.00 0.00 0.00 27 998.9
20260508211016 69 319 2.0 14.0 0.00 0.00 0.00 26 998.9
20260508210516 69 279 7.0 14.0 0.00 0.00 0.00 28 999.0
20260508210033 70 296 3.0 11.0 0.00 0.00 0.00 28 999.0
20260508205514 70 296 2.0 10.0 0.00 0.00 0.00 28 999.1
20260508205023 70 286 4.0 8.0 0.00 0.00 0.00 26 999.1
20260508204536 69 284 3.0 8.0 0.00 0.00 0.00 30 999.1
20260508204013 69 279 3.0 11.0 0.00 0.00 0.00 30 999.1
20260508203514 68 271 5.0 19.0 0.00 0.00 0.00 28 999.2
20260508203038 68 265 10.0 19.0 0.00 0.00 0.00 28 999.3
20260508202516 68 304 6.0 15.0 0.00 0.00 0.00 31 999.4
20260508202015 68 259 5.0 12.0 0.00 0.00 0.00 30 999.5
20260508201539 69 250 5.0 9.0 0.00 0.00 0.00 28 999.4
20260508201013 69 248 4.0 9.0 0.00 0.00 0.00 30 999.5
20260508200514 68 273 3.0 9.0 0.00 0.00 0.00 31 999.6
20260508200037 67 278 3.0 11.0 0.00 0.00 0.00 31 999.7
20260508195518 66 273 4.0 20.0 0.00 0.00 0.00 29 999.7
20260508195015 65 263 9.0 20.0 0.00 0.00 0.00 32 999.7
20260508194536 67 246 7.0 15.0 0.00 0.00 0.00 30 999.8
20260508194013 67 261 9.0 23.0 0.00 0.00 0.00 34 999.9
20260508193515 67 15 5.0 23.0 0.00 0.00 0.00 29 1000.0
20260508193032 66 284 4.0 14.0 0.00 0.00 0.00 33 1000.1
20260508192515 66 279 5.0 14.0 0.00 0.00 0.00 27 1000.1
20260508192021 66 267 3.0 10.0 0.00 0.00 0.00 31 1000.1
20260508191537 65 338 3.0 17.0 0.00 0.00 0.00 31 1000.3
20260508191014 64 258 5.0 20.0 0.00 0.00 0.00 30 1000.3
20260508190514 65 274 10.0 20.0 0.00 0.00 0.00 29 1000.3
20260508190036 65 246 6.0 12.0 0.00 0.00 0.00 31 1000.3
20260508185513 64 229 7.0 12.0 0.00 0.00 0.00 31 1000.4
20260508185015 64 246 3.0 9.0 0.00 0.00 0.00 30 1000.7
20260508184534 65 257 5.0 9.0 0.00 0.00 0.00 32 1000.7